VAF138 EGPO-EIDW

Flight info

Callsign VAF138
Flight time N/A
Altitude 34000
Route STN DCT OBA DCT MAC DCT BEL DCT DUB
Aircraft A320/M-SDE3FGHIRWY/LB1

Departure

Time 2026-04-19 09:19
Airport Stornoway Airport (EGPO)

Arrival

Time N/A
Airport Dublin Airport (EIDW)
Time Latitude Longitude Altitude Speed Heading
2026-04-19 09:10 58.21442 -6.32174 17 ft 0 kts 261°
2026-04-19 09:10 58.21442 -6.32173 16 ft 0 kts 261°
2026-04-19 09:15 58.21458 -6.32277 16 ft 13 kts 283°
2026-04-19 09:16 58.21436 -6.32430 17 ft 12 kts 234°
2026-04-19 09:16 58.21355 -6.32579 17 ft 23 kts 203°
2026-04-19 09:16 58.21191 -6.32560 17 ft 24 kts 175°
2026-04-19 09:16 58.21017 -6.32535 17 ft 26 kts 177°
2026-04-19 09:17 58.20932 -6.32758 17 ft 24 kts 261°
2026-04-19 09:17 58.20864 -6.32981 19 ft 20 kts 184°
2026-04-19 09:17 58.20720 -6.32953 18 ft 22 kts 173°
2026-04-19 09:17 58.20611 -6.32964 16 ft 10 kts 201°
2026-04-19 09:18 58.20601 -6.32940 15 ft 1 kts 24°
2026-04-19 09:18 58.20724 -6.32945 18 ft 52 kts 354°
2026-04-19 09:18 58.21329 -6.33063 15 ft 120 kts 354°
2026-04-19 09:18 58.22316 -6.33259 162 ft 153 kts 353°
2026-04-19 09:19 58.23338 -6.33460 893 ft 147 kts 353°
2026-04-19 09:19 58.24365 -6.33574 1373 ft 156 kts
2026-04-19 09:19 58.25381 -6.32626 1671 ft 179 kts 46°
2026-04-19 09:19 58.25938 -6.30391 1920 ft 203 kts 86°
2026-04-19 09:20 58.25520 -6.27734 2216 ft 226 kts 127°
2026-04-19 09:20 58.24450 -6.25334 2643 ft 250 kts 133°
2026-04-19 09:20 58.23208 -6.22900 3354 ft 261 kts 135°
2026-04-19 09:20 58.21911 -6.20440 4244 ft 266 kts 135°
2026-04-19 09:21 58.20445 -6.18296 5130 ft 270 kts 155°
2026-04-19 09:21 58.18645 -6.17266 6009 ft 272 kts 167°
2026-04-19 09:21 58.16792 -6.16438 6897 ft 275 kts 167°
2026-04-19 09:21 58.14917 -6.15583 7752 ft 279 kts 167°
2026-04-19 09:22 58.13020 -6.14708 8589 ft 282 kts 167°
2026-04-19 09:22 58.11101 -6.13814 9411 ft 286 kts 166°
2026-04-19 09:22 58.09158 -6.12904 10196 ft 290 kts 166°
2026-04-19 09:22 58.07126 -6.11956 10527 ft 313 kts 166°
2026-04-19 09:23 58.04934 -6.10942 10803 ft 334 kts 166°
2026-04-19 09:23 58.02645 -6.09884 11397 ft 342 kts 166°
2026-04-19 09:23 58.00319 -6.08807 12109 ft 347 kts 166°
2026-04-19 09:23 57.97964 -6.07710 12824 ft 350 kts 166°
2026-04-19 09:24 57.95586 -6.06601 13521 ft 354 kts 166°
2026-04-19 09:24 57.93181 -6.05481 14195 ft 358 kts 166°
2026-04-19 09:24 57.90752 -6.04355 14847 ft 361 kts 166°
2026-04-19 09:24 57.88331 -6.03237 15489 ft 364 kts 166°
2026-04-19 09:25 57.85856 -6.02096 16116 ft 368 kts 166°
2026-04-19 09:25 57.83358 -6.00951 16732 ft 371 kts 166°
2026-04-19 09:25 57.80837 -5.99798 17322 ft 375 kts 166°
2026-04-19 09:25 57.78290 -5.98632 17904 ft 378 kts 166°
2026-04-19 09:26 57.75727 -5.97459 18475 ft 381 kts 166°
2026-04-19 09:26 57.73134 -5.96270 19040 ft 385 kts 166°
2026-04-19 09:26 57.70526 -5.95077 19599 ft 388 kts 166°
2026-04-19 09:26 57.67891 -5.93871 20150 ft 391 kts 166°
2026-04-19 09:27 57.65236 -5.92655 20688 ft 394 kts 166°
2026-04-19 09:27 57.62561 -5.91436 21219 ft 397 kts 166°
2026-04-19 09:27 57.59864 -5.90216 21735 ft 401 kts 167°
2026-04-19 09:27 57.57146 -5.88989 22231 ft 404 kts 167°
2026-04-19 09:28 57.54403 -5.87752 22710 ft 407 kts 167°
2026-04-19 09:28 57.51645 -5.86511 23172 ft 409 kts 167°
2026-04-19 09:28 57.49809 -5.85685 23478 ft 411 kts 167°
2026-04-19 09:28 57.47016 -5.84428 23902 ft 415 kts 166°
2026-04-19 09:29 57.44200 -5.83155 24312 ft 418 kts 166°
2026-04-19 09:29 57.41371 -5.81877 24750 ft 420 kts 166°
2026-04-19 09:29 57.38524 -5.80599 25154 ft 422 kts 167°
2026-04-19 09:29 57.35661 -5.79319 25523 ft 425 kts 167°
2026-04-19 09:30 57.32783 -5.78035 25899 ft 427 kts 167°
2026-04-19 09:30 57.29886 -5.76741 26265 ft 429 kts 167°
2026-04-19 09:30 57.26969 -5.75437 26621 ft 431 kts 167°
2026-04-19 09:30 57.24044 -5.74131 26954 ft 434 kts 167°
2026-04-19 09:31 57.21094 -5.72819 27257 ft 437 kts 167°
2026-04-19 09:31 57.18124 -5.71505 27579 ft 440 kts 167°
2026-04-19 09:31 57.15146 -5.70192 27939 ft 441 kts 167°
2026-04-19 09:31 57.12158 -5.68877 28258 ft 443 kts 167°
2026-04-19 09:32 57.09190 -5.67570 28523 ft 446 kts 167°
2026-04-19 09:32 57.06165 -5.66242 28793 ft 448 kts 167°
2026-04-19 09:32 57.03124 -5.64907 29069 ft 450 kts 167°
2026-04-19 09:32 57.00068 -5.63564 29351 ft 452 kts 167°
2026-04-19 09:33 56.97000 -5.62216 29634 ft 453 kts 167°
2026-04-19 09:33 56.93927 -5.60866 29901 ft 455 kts 167°
2026-04-19 09:33 56.90843 -5.59514 30121 ft 457 kts 167°
2026-04-19 09:33 56.87744 -5.58158 30358 ft 459 kts 167°
2026-04-19 09:34 56.84636 -5.56803 30583 ft 461 kts 167°
2026-04-19 09:34 56.81508 -5.55447 30797 ft 462 kts 167°
2026-04-19 09:34 56.78387 -5.54097 31117 ft 461 kts 167°
2026-04-19 09:34 56.75266 -5.52744 31387 ft 460 kts 167°
2026-04-19 09:35 56.72152 -5.51397 31685 ft 460 kts 167°
2026-04-19 09:35 56.69042 -5.50055 31976 ft 459 kts 167°
2026-04-19 09:35 56.65937 -5.48716 32272 ft 459 kts 167°
2026-04-19 09:35 56.62831 -5.47377 32550 ft 458 kts 167°
2026-04-19 09:36 56.59738 -5.46048 32867 ft 456 kts 167°
2026-04-19 09:36 56.56656 -5.44728 33171 ft 455 kts 167°
2026-04-19 09:36 56.53572 -5.43414 33440 ft 454 kts 167°
2026-04-19 09:36 56.50496 -5.42102 33708 ft 454 kts 167°
2026-04-19 09:37 56.47400 -5.41030 33944 ft 453 kts 174°
2026-04-19 09:37 56.41190 -5.41406 34012 ft 449 kts 188°
2026-04-19 09:38 56.35007 -5.42964 34009 ft 449 kts 188°
2026-04-19 09:38 56.28816 -5.44475 34010 ft 449 kts 188°
2026-04-19 09:39 56.22614 -5.45979 34010 ft 449 kts 188°
2026-04-19 09:39 56.16423 -5.47487 34010 ft 449 kts 188°
2026-04-19 09:40 56.10229 -5.49000 34008 ft 449 kts 188°
2026-04-19 09:40 56.04034 -5.50513 34010 ft 448 kts 188°
2026-04-19 09:41 55.97846 -5.52004 34008 ft 449 kts 188°
2026-04-19 09:41 55.91657 -5.53491 34005 ft 449 kts 188°
2026-04-19 09:42 55.85470 -5.54961 34001 ft 449 kts 188°
2026-04-19 09:42 55.79319 -5.56444 34002 ft 449 kts 188°